• în Republica Moldova
  • Lista ţărilor
  • Pe 7 zile
  • Temperatura apei
  • Hartă satelitară
  • Meteo pe hartă
  • Widget-uri
  • user-avatar
    Intrare

    Meteo pe oră la Darwin

    Astăzi, 24 Martie, Vineri

    Timp Temperatura Precipitaţii Vânt Presiune Umiditate
    00:00 +28°C° 0,7 mm 1 m/s 756 mmHg 88%
    01:00 +28°C° 1,2 mm 1 m/s 756 mmHg 88%
    02:00 +28°C° 1,2 mm 1 m/s 756 mmHg 88%
    03:00 +28°C° 0 mm 1 m/s 755 mmHg 88%
    04:00 +27°C° 0 mm 1 m/s 756 mmHg 88%
    05:00 +27°C° 0 mm 1 m/s 756 mmHg 89%
    06:00 +27°C° 0 mm 1 m/s 756 mmHg 89%
    07:00 +28°C° 0 mm 2 m/s 756 mmHg 85%
    08:00 +30°C° 0 mm 2 m/s 756 mmHg 80%
    09:00 +32°C° 0 mm 1 m/s 756 mmHg 75%
    10:00 +33°C° 0,1 mm 1 m/s 756 mmHg 70%
    11:00 +35°C° 0,1 mm 2 m/s 756 mmHg 65%
    12:00 +36°C° 0,1 mm 2 m/s 755 mmHg 60%
    13:00 +36°C° 0,1 mm 2 m/s 755 mmHg 60%
    14:00 +36°C° 0,1 mm 2 m/s 755 mmHg 61%
    15:00 +34°C° 0 mm 1 m/s 754 mmHg 64%
    16:00 +33°C° 1,6 mm 1 m/s 754 mmHg 71%
    17:00 +32°C° 1,6 mm 1 m/s 755 mmHg 78%
    18:00 +31°C° 1,6 mm 1 m/s 755 mmHg 85%
    19:00 +30°C° 0,1 mm 1 m/s 755 mmHg 86%
    20:00 +29°C° 0,1 mm 1 m/s 755 mmHg 88%
    21:00 +28°C° 0,1 mm 2 m/s 756 mmHg 89%
    22:00 +28°C° 0 mm 2 m/s 756 mmHg 90%
    23:00 +28°C° 0 mm 2 m/s 756 mmHg 90%

    Mâine, 25 Martie, Sâmbătă

    Timp Temperatura Precipitaţii Vânt Presiune Umiditate
    00:00 +28°C° 0 mm 2 m/s 756 mmHg 91%
    01:00 +28°C° 0,4 mm 2 m/s 755 mmHg 92%
    02:00 +28°C° 0,4 mm 2 m/s 755 mmHg 92%
    03:00 +27°C° 0,4 mm 2 m/s 755 mmHg 93%
    04:00 +27°C° 0,6 mm 2 m/s 755 mmHg 93%
    05:00 +27°C° 0,6 mm 2 m/s 755 mmHg 94%
    06:00 +27°C° 0,6 mm 2 m/s 755 mmHg 94%
    07:00 +28°C° 0,6 mm 2 m/s 755 mmHg 91%
    08:00 +29°C° 0,6 mm 2 m/s 755 mmHg 87%
    09:00 +30°C° 0,6 mm 2 m/s 756 mmHg 84%
    10:00 +31°C° 1,2 mm 2 m/s 755 mmHg 79%
    11:00 +32°C° 1,2 mm 2 m/s 755 mmHg 74%
    12:00 +34°C° 1,2 mm 2 m/s 755 mmHg 69%
    13:00 +34°C° 1,1 mm 2 m/s 754 mmHg 70%
    14:00 +34°C° 1,1 mm 3 m/s 754 mmHg 71%
    15:00 +34°C° 1,1 mm 3 m/s 754 mmHg 73%
    16:00 +32°C° 0,7 mm 2 m/s 754 mmHg 76%
    17:00 +31°C° 0,7 mm 2 m/s 754 mmHg 79%
    18:00 +30°C° 0,7 mm 2 m/s 754 mmHg 82%
    19:00 +30°C° 1,9 mm 1 m/s 755 mmHg 84%
    20:00 +29°C° 1,9 mm 1 m/s 755 mmHg 86%
    21:00 +28°C° 1,9 mm 1 m/s 756 mmHg 88%
    22:00 +28°C° 0,2 mm 1 m/s 756 mmHg 89%
    23:00 +28°C° 0,2 mm 1 m/s 756 mmHg 89%

    Poimâine, 26 Martie, Duminică

    Timp Temperatura Precipitaţii Vânt Presiune Umiditate
    00:00 +28°C° 0,2 mm 1 m/s 756 mmHg 90%
    01:00 +28°C° 1,2 mm 2 m/s 756 mmHg 91%
    02:00 +28°C° 1,2 mm 2 m/s 756 mmHg 92%
    03:00 +27°C° 1,2 mm 2 m/s 755 mmHg 92%
    04:00 +27°C° 1,1 mm 2 m/s 755 mmHg 93%
    05:00 +27°C° 1,1 mm 2 m/s 755 mmHg 93%
    06:00 +27°C° 1,1 mm 2 m/s 756 mmHg 93%
    07:00 +28°C° 0,1 mm 2 m/s 756 mmHg 88%
    08:00 +29°C° 0,1 mm 2 m/s 757 mmHg 84%
    09:00 +31°C° 0,1 mm 2 m/s 757 mmHg 79%
    10:00 +33°C° 0,4 mm 3 m/s 757 mmHg 75%
    11:00 +33°C° 0,4 mm 3 m/s 756 mmHg 71%
    12:00 +34°C° 0,4 mm 3 m/s 756 mmHg 67%
    13:00 +34°C° 0,8 mm 4 m/s 756 mmHg 68%
    14:00 +34°C° 0,8 mm 4 m/s 755 mmHg 69%
    15:00 +34°C° 0,8 mm 4 m/s 754 mmHg 70%
    16:00 +33°C° 0,2 mm 4 m/s 755 mmHg 73%
    17:00 +32°C° 0,2 mm 4 m/s 755 mmHg 76%
    18:00 +30°C° 0,2 mm 3 m/s 756 mmHg 80%
    19:00 +30°C° 0,2 mm 3 m/s 756 mmHg 81%
    20:00 +29°C° 0,2 mm 3 m/s 757 mmHg 82%
    21:00 +28°C° 0,2 mm 2 m/s 757 mmHg 83%
    22:00 +28°C° 0,4 mm 2 m/s 757 mmHg 84%
    23:00 +28°C° 0,4 mm 2 m/s 758 mmHg 84%

    27 Martie, Luni

    Timp Temperatura Precipitaţii Vânt Presiune Umiditate
    00:00 +28°C° 0,4 mm 2 m/s 758 mmHg 85%
    01:00 +28°C° 0,2 mm 2 m/s 757 mmHg 85%
    02:00 +28°C° 0,2 mm 2 m/s 757 mmHg 85%
    03:00 +28°C° 0,2 mm 2 m/s 756 mmHg 85%
    04:00 +28°C° 0 mm 2 m/s 756 mmHg 85%
    05:00 +28°C° 0 mm 2 m/s 756 mmHg 86%
    06:00 +28°C° 0 mm 2 m/s 757 mmHg 86%
    07:00 +29°C° 0 mm 2 m/s 757 mmHg 82%
    08:00 +30°C° 0 mm 2 m/s 757 mmHg 78%
    09:00 +31°C° 0 mm 2 m/s 757 mmHg 74%
    10:00 +33°C° 0 mm 3 m/s 757 mmHg 70%
    11:00 +34°C° 0 mm 3 m/s 757 mmHg 66%
    12:00 +35°C° 0 mm 3 m/s 757 mmHg 62%
    13:00 +35°C° 0,3 mm 3 m/s 756 mmHg 63%
    14:00 +35°C° 0,3 mm 3 m/s 755 mmHg 65%
    15:00 +34°C° 0,3 mm 3 m/s 754 mmHg 67%
    16:00 +33°C° 0,1 mm 3 m/s 755 mmHg 71%
    17:00 +31°C° 0,1 mm 3 m/s 755 mmHg 75%
    18:00 +31°C° 0,1 mm 3 m/s 755 mmHg 78%
    19:00 +30°C° 0 mm 3 m/s 756 mmHg 80%
    20:00 +29°C° 0 mm 3 m/s 756 mmHg 82%
    21:00 +29°C° 0 mm 2 m/s 757 mmHg 83%
    22:00 +29°C° 0 mm 2 m/s 757 mmHg 84%
    23:00 +29°C° 0 mm 2 m/s 757 mmHg 85%

    28 Martie, Marţi

    Timp Temperatura Precipitaţii Vânt Presiune Umiditate
    00:00 +28°C° 0 mm 2 m/s 757 mmHg 86%
    01:00 +28°C° 0 mm 2 m/s 756 mmHg 86%
    02:00 +28°C° 0 mm 2 m/s 756 mmHg 87%
    03:00 +28°C° 0 mm 2 m/s 755 mmHg 88%
    04:00 +28°C° 0 mm 2 m/s 756 mmHg 88%
    05:00 +28°C° 0 mm 2 m/s 756 mmHg 89%
    06:00 +28°C° 0 mm 2 m/s 756 mmHg 89%
    07:00 +29°C° 0 mm 3 m/s 756 mmHg 85%
    08:00 +30°C° 0 mm 3 m/s 757 mmHg 81%
    09:00 +31°C° 0 mm 3 m/s 757 mmHg 76%
    10:00 +33°C° 0 mm 3 m/s 757 mmHg 72%
    11:00 +34°C° 0 mm 3 m/s 756 mmHg 67%
    12:00 +35°C° 0 mm 3 m/s 756 mmHg 62%
    13:00 +35°C° 0,3 mm 3 m/s 755 mmHg 63%
    14:00 +35°C° 0,3 mm 3 m/s 755 mmHg 64%
    15:00 +35°C° 0,3 mm 4 m/s 754 mmHg 65%
    16:00 +34°C° 0,1 mm 3 m/s 754 mmHg 70%
    17:00 +33°C° 0,1 mm 3 m/s 755 mmHg 75%
    18:00 +31°C° 0,1 mm 3 m/s 755 mmHg 80%
    19:00 +30°C° 0 mm 3 m/s 756 mmHg 82%
    20:00 +30°C° 0 mm 3 m/s 756 mmHg 83%
    21:00 +29°C° 0 mm 2 m/s 757 mmHg 84%
    22:00 +29°C° 0 mm 2 m/s 757 mmHg 85%
    23:00 +29°C° 0 mm 2 m/s 757 mmHg 86%

    29 Martie, Miercuri

    Timp Temperatura Precipitaţii Vânt Presiune Umiditate
    00:00 +28°C° 0 mm 2 m/s 756 mmHg 87%
    01:00 +28°C° 0 mm 2 m/s 756 mmHg 87%
    02:00 +28°C° 0 mm 2 m/s 755 mmHg 88%
    03:00 +28°C° 0 mm 2 m/s 755 mmHg 89%
    04:00 +28°C° 0 mm 3 m/s 755 mmHg 89%
    05:00 +28°C° 0 mm 3 m/s 755 mmHg 89%
    06:00 +28°C° 0 mm 3 m/s 756 mmHg 90%
    07:00 +29°C° 0 mm 3 m/s 756 mmHg 85%
    08:00 +30°C° 0 mm 3 m/s 756 mmHg 81%
    09:00 +33°C° 0 mm 3 m/s 757 mmHg 76%
    10:00 +34°C° 0 mm 3 m/s 756 mmHg 71%
    11:00 +35°C° 0 mm 3 m/s 756 mmHg 66%
    12:00 +36°C° 0 mm 3 m/s 756 mmHg 61%
    13:00 +35°C° 0 mm 3 m/s 755 mmHg 62%
    14:00 +35°C° 0 mm 3 m/s 755 mmHg 63%
    15:00 +35°C° 0 mm 4 m/s 755 mmHg 64%
    16:00 +34°C° 0,1 mm 3 m/s 755 mmHg 70%
    17:00 +33°C° 0,1 mm 3 m/s 755 mmHg 75%
    18:00 +31°C° 0,1 mm 3 m/s 756 mmHg 81%
    19:00 +30°C° 0 mm 3 m/s 756 mmHg 82%
    20:00 +30°C° 0 mm 3 m/s 756 mmHg 83%
    21:00 +29°C° 0 mm 2 m/s 757 mmHg 85%
    22:00 +29°C° 0 mm 2 m/s 757 mmHg 85%
    23:00 +29°C° 0 mm 2 m/s 757 mmHg 86%
    Arată mai mult